Dewpoint
68 70 71 71 72 71 71 72 72 72 72 72 73 72 72 72 72 73 73 72 72 72 73 72 73 72 71 72 73 73 72 72 73 73 73 72 72 71 72 72 72 72 72
69 70 71 71 71 71 71 72 72 71 71 71 70 72 72 72 72 72 73 71 72 72 72 71 71 72 72 73 72 73 73 73 72 72 72 72 72 72 72 71 71 72 72
69 70 71 71 71 71 71 71 71 71 72 72 72 72 71 71 72 72 72 72 71 72 71 73 73 73 72 72 72 72 72 72 73 71 71 70 71 71 72 72 72 72 71
69 69 70 72 71 71 70 69 70 71 72 72 71 71 70 71 72 71 72 72 72 72 72 73 72 72 71 72 71 71 72 72 72 72 70 68 67 69 69 70 70 70 71
69 71 71 72 71 71 70 70 71 71 71 70 71 71 71 71 72 72 71 71 71 71 71 71 72 72 72 72 72 72 71 71 71 71 71 69 70 71 71 72 72 71 70
68 70 70 71 71 71 71 70 70 70 70 69 69 69 70 70 71 72 72 72 72 73 72 72 72 72 72 71 71 70 71 71 72 71 68 70 70 72 72 71 70 69 68
67 69 69 69 70 71 70 70 70 71 71 71 71 71 71 70 71 72 72 72 73 72 72 72 72 70 69 70 71 72 72 72 71 70 69 68 70 71 71 70 70 68 66
65 67 68 68 69 70 70 71 71 71 71 70 70 69 68 68 70 72 72 72 72 71 72 72 71 68 68 70 71 72 71 71 70 68 68 69 70 70 70 71 71 70 70
64 66 67 68 67 68 70 70 70 70 70 69 69 69 69 69 70 72 72 72 71 71 71 71 70 68 69 70 71 71 72 72 72 67 67 68 70 71 71 72 72 72 69
64 66 67 67 67 67 69 70 70 69 69 69 68 69 70 71 72 72 72 72 71 70 70 70 70 70 70 70 71 71 72 72 68 67 67 68 71 72 72 72 72 72 70
62 64 66 66 66 67 69 70 70 69 68 68 69 70 71 72 72 70 71 71 70 70 70 70 71 71 71 71 72 72 72 68 61 67 68 68 72 72 71 71 72 73 70
61 62 64 65 65 67 68 68 68 68 68 68 69 69 70 69 70 70 71 70 70 70 70 71 72 71 71 70 68 71 67 67 67 66 68 70 73 70 70 71 71 73 73
60 60 64 63 66 67 68 67 68 69 69 69 70 70 69 69 69 69 70 70 70 70 71 69 69 70 70 69 68 68 66 65 59 61 65 70 72 69 69 70 71 72 72
58 60 62 61 65 68 68 66 67 70 71 70 70 69 68 68 68 67 67 69 68 69 69 69 67 68 68 68 67 63 66 63 64 62 65 70 70 70 69 70 72 73 72
57 58 60 63 65 65 70 69 67 66 67 69 69 68 68 68 68 69 64 66 63 67 69 67 66 66 65 55 62 61 63 61 66 66 69 72 67 67 70 71 71 71 71
57 56 57 62 67 69 69 69 69 67 68 68 68 65 69 70 69 68 66 66 66 64 66 70 67 66 63 54 64 62 61 65 67 67 67 69 69 68 72 72 70 71 72
63 60 62 65 68 68 67 68 69 69 68 67 66 66 67 70 66 63 64 66 68 68 65 68 68 67 67 65 56 61 66 69 64 62 61 68 70 71 71 72 72 73 72
63 63 66 65 67 67 67 67 68 66 68 66 65 69 63 68 64 64 64 66 68 69 71 69 66 56 60 64 53 66 68 69 69 65 56 66 69 71 70 73 72 72 72
63 64 62 61 65 66 66 67 66 65 68 66 66 67 60 66 69 60 61 68 70 69 70 60 66 57 62 59 59 64 66 64 67 67 66 66 69 71 69 72 71 70 72
64 63 63 63 63 65 67 63 60 64 66 67 67 65 69 68 70 69 69 70 65 67 71 71 70 70 70 62 63 65 64 65 67 64 67 66 70 69 68 69 69 68 70
61 61 61 64 63 67 67 64 62 65 66 64 67 66 68 66 69 67 70 70 66 68 68 67 70 69 67 67 65 63 62 61 63 65 67 67 68 68 69 71 69 66 69
61 62 63 62 65 66 65 67 66 66 68 66 67 69 67 67 70 68 70 70 70 68 68 67 69 69 69 68 62 64 57 58 62 63 67 68 63 67 69 70 69 71 70
62 63 65 65 63 67 65 66 67 66 66 65 66 65 67 68 69 68 69 70 68 71 69 68 70 69 67 67 67 63 60 58 63 63 62 65 65 67 70 70 69 70 71
64 64 66 66 66 65 67 67 65 64 62 64 59 63 68 69 69 69 69 69 67 69 70 70 69 70 71 68 67 68 65 63 59 57 62 63 66 64 67 67 63 66 70
61 65 67 68 67 66 69 68 65 67 65 66 69 65 69 69 68 69 70 68 68 70 70 69 71 71 70 69 68 67 66 67 68 65 60 62 64 66 67 66 63 71 71
63 61 67 69 68 67 67 69 67 67 65 65 64 67 68 70 69 69 69 68 70 71 70 70 71 70 70 68 69 69 67 66 65 62 61 63 62 64 67 68 64 71 72
Wind_Speed
7 8 11 14 15 15 15 17 17 16 15 14 14 14 13 13 13 12 12 11 11 13 12 12 13 14 14 14 13 14 16 16 18 18 17 15 12 11 15 18 18 17 17
11 10 12 14 16 15 16 17 17 16 15 14 14 14 13 12 12 11 12 11 12 13 11 13 12 13 13 14 13 13 13 14 15 15 15 13 14 14 13 15 14 13 14
14 10 12 13 15 15 15 17 18 17 16 15 16 15 13 12 11 10 12 12 12 13 13 11 12 11 11 11 11 11 12 12 14 15 15 10 10 13 14 16 16 15 13
20 14 11 14 15 16 17 17 18 18 17 17 16 16 14 14 12 12 12 14 13 13 13 12 11 10 8 6 7 8 9 9 12 16 9 13 11 13 13 13 13 13 13
17 15 13 16 16 17 17 18 18 18 18 18 17 16 14 16 12 11 13 13 14 13 11 11 10 9 6 2 2 3 4 7 9 12 14 11 12 13 12 12 13 11 10
16 14 14 15 15 17 17 18 18 17 17 18 17 15 17 16 12 11 11 12 12 12 11 9 7 6 3 3 7 8 6 8 9 8 13 15 12 13 12 12 11 8 8
17 16 13 16 15 16 18 17 17 17 17 17 16 14 16 16 13 10 11 10 10 9 8 7 5 3 2 6 8 11 10 10 8 4 10 14 13 13 12 10 11 5 3
18 16 14 15 16 15 16 16 17 16 17 17 14 13 13 12 9 8 11 9 8 8 6 5 3 4 5 7 7 8 10 10 10 8 8 13 15 14 13 11 10 6 4
15 15 13 13 16 15 15 15 15 16 16 16 12 12 8 9 5 6 8 8 8 8 7 6 6 7 8 8 10 8 10 13 8 4 10 11 16 15 13 11 9 6 5
13 10 14 11 12 12 13 15 13 14 13 14 11 9 7 5 5 6 7 7 7 6 8 10 10 9 11 12 13 10 12 17 29 13 7 10 16 15 12 10 8 3 5
13 12 12 12 11 12 12 12 12 11 10 9 5 3 3 1 5 8 8 8 8 9 11 12 11 12 13 15 16 14 12 22 16 26 10 12 17 14 10 8 6 3 4
16 14 10 10 11 10 10 10 8 7 5 3 3 0 2 5 7 7 9 10 9 12 12 12 14 15 14 12 11 9 14 12 20 11 10 13 16 10 7 6 5 2 2
19 14 10 10 9 12 11 11 8 7 5 8 6 7 6 4 6 8 8 5 8 8 8 13 14 13 13 14 14 6 21 20 5 9 12 13 15 8 4 4 3 2 2
19 19 13 12 11 12 11 9 8 7 5 9 8 12 10 10 9 7 3 9 8 7 8 18 14 12 13 14 14 10 19 15 9 16 14 15 12 5 2 2 2 3 2
21 21 19 16 13 11 8 8 10 7 8 9 10 11 12 3 8 4 13 7 2 2 11 13 12 11 5 10 12 7 18 15 10 9 5 6 3 4 3 3 4 5 4
22 22 20 17 13 11 10 11 11 9 9 10 11 7 18 14 9 6 5 5 4 3 5 16 19 8 4 9 12 15 17 15 13 10 8 7 7 6 6 6 8 9 5
19 25 23 18 14 14 15 14 13 12 12 12 14 7 10 11 8 8 4 8 12 15 16 20 13 11 12 5 9 20 24 19 10 5 6 4 3 8 7 7 8 7 6
18 21 21 18 18 17 17 11 5 9 6 13 12 13 9 8 16 11 5 12 15 20 19 6 4 0 8 6 5 16 25 19 25 20 5 3 5 10 9 9 6 3 3
26 23 23 19 19 20 11 8 7 5 6 8 8 15 16 16 19 15 9 15 19 4 3 4 1 1 6 4 11 13 3 12 6 13 12 7 13 13 11 11 11 5 4
27 23 21 20 20 15 11 6 3 3 4 6 16 15 15 13 21 14 10 13 3 5 5 5 2 2 4 9 7 10 12 4 4 1 12 10 19 12 13 11 8 5 4
24 19 22 20 20 17 11 7 3 9 6 5 11 10 7 10 8 6 1 5 3 4 3 2 4 6 8 1 8 3 6 8 6 7 5 7 15 7 7 10 6 2 5
22 22 20 24 20 17 15 13 9 6 2 6 9 10 10 9 11 6 5 1 1 0 2 3 1 3 3 3 2 4 6 7 11 8 7 12 7 17 6 7 6 3 2
20 22 23 25 23 19 17 10 6 8 4 6 5 6 10 12 11 7 4 3 3 2 6 6 3 2 4 5 6 3 3 2 1 2 5 4 2 10 8 15 12 9 9
17 20 20 24 24 20 16 11 12 9 8 9 8 8 8 13 11 11 8 6 5 4 4 4 2 1 3 6 5 3 1 2 2 3 5 3 7 13 16 12 11 8 5
8 15 20 21 23 19 16 14 15 11 11 6 2 15 12 12 9 13 10 7 4 4 6 3 1 3 3 4 4 5 5 8 4 1 2 6 4 7 3 7 9 11 15
21 15 19 21 23 21 21 19 16 17 13 10 6 7 9 8 9 10 10 8 5 4 2 4 6 1 1 3 5 6 7 6 7 5 4 2 3 3 8 4 8 9 10
Wind_Direction
112 116 109 111 105 105 102 101 101 104 106 104 103 101 98 96 94 97 98 103 116 111 117 119 111 113 112 113 117 120 127 128 128 133 130 123 116 130 137 130 126 122 123
133 123 116 115 110 105 110 107 102 103 102 101 101 102 101 98 99 103 107 110 116 121 122 118 119 117 121 123 129 131 120 129 135 132 129 126 120 120 124 124 115 116 125
118 128 114 116 117 117 113 111 107 108 108 103 98 96 99 102 105 110 110 112 120 127 126 121 116 118 121 133 137 134 134 143 147 145 140 138 141 137 131 130 128 131 130
146 131 128 122 114 115 117 112 109 108 103 100 98 98 102 108 104 108 117 123 128 131 132 132 124 123 122 138 144 138 148 163 165 179 166 159 149 138 135 133 135 133 133
108 114 123 117 116 119 119 115 111 108 107 106 102 100 102 108 112 123 125 127 129 129 130 128 124 118 120 154 224 187 181 198 214 221 224 173 148 143 144 141 139 133 133
113 117 122 118 126 122 119 119 115 113 112 111 110 109 113 107 104 122 121 131 129 135 132 133 123 119 141 236 265 268 242 233 241 257 157 158 146 157 153 150 141 129 117
121 114 123 126 124 123 121 120 117 118 117 112 102 110 108 107 109 127 134 131 124 129 135 140 139 150 211 253 270 276 275 270 272 194 168 145 146 156 160 159 150 129 56
134 125 126 125 126 126 125 124 119 122 121 120 119 112 109 110 103 132 133 134 137 147 155 161 192 224 237 257 272 283 285 294 319 163 160 156 163 162 167 175 174 162 198
97 122 123 124 130 126 125 123 122 125 127 130 123 122 132 102 111 145 138 148 161 169 181 206 225 247 251 259 270 279 294 299 346 233 170 172 173 170 175 184 195 206 113
101 115 127 119 111 125 131 128 125 129 132 131 135 125 98 81 140 156 165 173 188 199 213 227 234 245 262 262 264 272 279 10 6 310 205 201 186 176 178 188 205 238 104
117 115 125 128 129 129 126 130 130 126 139 121 114 92 69 327 260 206 189 196 210 224 234 242 254 248 256 265 266 270 25 76 20 289 269 209 204 178 174 186 206 193 190
131 130 138 142 146 146 118 125 141 139 141 171 212 182 224 231 230 244 210 202 221 241 249 266 270 270 267 272 271 253 110 136 169 237 332 253 225 176 174 190 213 167 202
137 146 157 155 151 148 151 158 170 179 201 230 225 227 230 230 256 287 211 218 237 269 309 298 267 262 259 256 262 134 157 209 160 185 253 230 243 170 193 204 222 121 143
148 158 168 163 188 178 168 163 191 201 203 244 214 216 222 238 251 256 160 4 4 356 240 249 255 270 246 271 261 245 174 199 195 195 235 219 205 180 155 216 164 115 96
151 165 178 187 190 199 172 172 198 185 195 239 264 226 210 187 115 55 83 34 30 293 289 280 293 276 250 313 307 283 161 199 184 189 216 231 257 116 215 148 139 134 124
159 166 174 184 194 201 211 195 217 225 232 235 260 224 78 75 79 82 84 351 320 269 293 283 259 253 273 279 314 333 8 79 124 132 215 251 268 179 189 144 136 130 128
176 168 178 195 194 202 221 214 221 215 232 240 242 120 81 122 174 118 88 350 289 301 288 279 12 38 28 63 47 38 30 10 323 187 162 89 118 209 173 172 153 141 125
178 173 177 185 185 203 216 212 217 189 191 193 171 130 107 100 123 101 240 276 266 258 255 358 39 27 357 335 27 110 59 343 291 299 130 140 186 215 181 180 156 149 108
174 180 179 186 174 183 171 157 208 178 143 204 217 159 164 156 144 174 181 241 238 328 296 189 22 202 278 293 58 44 112 219 317 327 318 186 192 206 174 186 163 174 136
169 181 179 163 171 166 153 171 181 334 301 209 190 183 185 170 170 181 212 239 320 18 332 17 270 297 182 215 125 146 246 15 76 291 329 259 175 186 162 182 156 152 178
163 159 151 162 169 162 164 177 244 258 254 167 145 158 145 158 172 180 104 248 264 338 234 332 348 350 347 160 143 142 302 341 308 52 18 43 121 163 75 4 337 244 169
166 167 162 158 164 172 173 178 208 197 255 185 156 169 176 190 181 187 187 219 72 170 293 264 322 329 290 339 46 52 16 352 29 12 94 191 264 109 132 229 183 146 282
179 179 169 167 173 176 192 189 195 121 124 125 163 217 191 188 177 184 193 206 268 340 271 233 240 348 350 327 345 127 73 314 358 279 269 212 329 130 167 179 155 150 195
201 185 177 172 175 187 193 189 200 196 168 205 231 227 221 186 189 185 202 203 235 247 283 264 248 108 51 8 8 330 80 199 52 18 242 140 169 186 192 215 175 140 181
272 185 181 180 180 190 198 202 198 183 170 175 219 197 223 179 194 196 198 164 224 246 280 258 241 88 64 33 25 1 358 3 242 215 8 52 214 243 201 262 150 147 163
247 247 196 181 187 193 204 214 202 180 176 171 192 159 179 189 203 199 174 172 207 212 225 275 316 49 19 0 12 14 32 3 354 63 79 26 28 200 198 235 169 169 147